Location: Peterborough
(44.3091°N, 78.3197°W)
Time: 05:12:29
(UTC-04:00)

Vanguard 2 - Pass Details

Date: 28 March 2023
Orbit: 552 x 2926 km, 32.9° (Epoch: 04 June)

Event Time Altitude Azimuth Distance (km) Brightness Sun altitude
Rises 09:38:16 0° 267° (W) 6,678 11.8 26.5°
Reaches altitude 10° 09:43:15 10° 262° (W) 5,491 11.5 27.3°
Maximum altitude 09:57:36 45° 198° (SSW) 2,666 10.7 29.6°
Drops below altitude 10° 10:07:05 10° 129° (SE) 3,688 12.5 31.1°
Sets 10:09:45 0° 123° (ESE) 4,385 12.5 31.5°
